Home   Weather   Jelgava   Past weeks

Flag for Latvia Past Weather in Jelgava, Latvia — Yesterday and Last 2 Weeks

Now
50 °F

Clear.


Feels Like: 48 °F
Forecast: 49 / 54 °F
Wind: 6 mph from Southwest

Location: Riga Airport

Current Time: Oct 1, 2016 at 10:01:02 PM

Latest Report: Oct 1, 2016 at 9:20 PM


Visibility: 10 mi

Pressure: 29.92 "Hg

Humidity: 88%

Dew Point: 46 °F

Location of JelgavaLocation

Past Weather in Jelgava — Graph

°F

Jelgava Temperature Yesterday

Maximum temperature yesterday: 63 °F (at 12:20 AM)
Minimum temperature yesterday: 54 °F (at 8:50 PM)
Average temperature yesterday: 59 °F

High & Low Weather Summary for the Past Weeks

 TemperatureHumidityPressure
High64 °F (Sep 27, 12:20 PM)100% (Sep 17, 1:50 AM)30.36 "Hg (Sep 17, 1:50 AM)
Low39 °F (Sep 19, 12:50 AM)48% (Sep 17, 2:20 PM)29.47 "Hg (Sep 30, 5:20 AM)
Average52 °F84%30.05 "Hg
* Reported Sep 16 8:20 PM — Oct 1 8:50 PM, Jelgava, Weather by CustomWeather, © 2016

Note: Actual official high and low records may vary slightly from our data, if they occured in-between our weather recording intervals... More about our weather records

Advertising

Jelgava Weather History for the Previous 24 Hours

Scroll right to see more
 ConditionsComfort  
Time TempWeatherWind HumidityBarometerVisibility
8:50 PM
Sat, Oct 1
52 °FClear.5 mph82%29.92 "Hg10 mi
8:20 PM50 °FPassing clouds.6 mph82%29.92 "HgN/A
7:50 PM52 °FPassing clouds.5 mph77%29.92 "HgN/A
7:20 PM54 °FClear.3 mph72%29.92 "Hg10 mi
6:50 PM57 °FPassing clouds.3 mph63%29.92 "HgN/A
6:20 PM59 °FScattered clouds.7 mph59%29.89 "HgN/A
5:50 PM61 °FScattered clouds.7 mph55%29.89 "HgN/A
5:20 PM63 °FScattered clouds.12 mph52%29.89 "HgN/A
4:50 PM63 °FScattered clouds.7 mph52%29.89 "HgN/A
4:20 PM64 °FScattered clouds.10 mph49%29.89 "HgN/A
3:50 PM63 °FScattered clouds.9 mph56%29.89 "HgN/A
3:20 PM61 °FScattered clouds.7 mph59%29.89 "HgN/A
2:50 PM63 °FScattered clouds.7 mph59%29.89 "HgN/A
2:20 PM61 °FPartly sunny.6 mph59%29.89 "HgN/A
1:50 PM63 °FPartly sunny.12 mph59%29.89 "HgN/A
1:20 PM61 °FPartly sunny.9 mph59%29.89 "HgN/A
12:50 PM61 °FPartly sunny.10 mph59%29.86 "HgN/A
12:20 PM61 °FScattered clouds.12 mph68%29.86 "HgN/A
11:50 AM59 °FScattered clouds.10 mph72%29.86 "HgN/A
11:20 AM57 °FPassing clouds.13 mph77%29.86 "HgN/A
10:50 AM57 °FPassing clouds.13 mph77%29.83 "HgN/A
10:20 AM55 °FPassing clouds.12 mph82%29.83 "HgN/A
9:50 AM54 °FPassing clouds.10 mph82%29.83 "HgN/A
9:20 AM52 °FPassing clouds.10 mph88%29.83 "HgN/A
8:50 AM50 °FSunny.10 mph94%29.80 "Hg10 mi
8:20 AM50 °FSunny.9 mph94%29.80 "Hg10 mi
7:50 AM50 °FSunny.9 mph88%29.80 "Hg10 mi
7:20 AM50 °FClear.8 mph94%29.80 "Hg10 mi
6:50 AM48 °FClear.8 mph94%29.77 "Hg10 mi
6:20 AM50 °FClear.8 mph94%29.77 "Hg10 mi
5:50 AM50 °FClear.7 mph88%29.77 "Hg10 mi
5:20 AM50 °FClear.9 mph88%29.77 "Hg10 mi
4:50 AM50 °FClear.8 mph88%29.77 "Hg10 mi
4:20 AM50 °FClear.8 mph88%29.77 "Hg10 mi
3:50 AM50 °FClear.9 mph88%29.74 "Hg10 mi
3:20 AM50 °FClear.8 mph94%29.74 "Hg10 mi
2:50 AM50 °FPassing clouds.8 mph88%29.74 "HgN/A
2:20 AM50 °FPassing clouds.8 mph94%29.74 "HgN/A
1:50 AM52 °FPassing clouds.7 mph88%29.74 "HgN/A
1:20 AM52 °FPassing clouds.9 mph88%29.74 "HgN/A
12:50 AM54 °FPassing clouds.9 mph82%29.74 "HgN/A
12:20 AM54 °FPassing clouds.10 mph82%29.74 "HgN/A
11:50 PM
Fri, Sep 30
54 °FPassing clouds.12 mph82%29.74 "HgN/A
11:20 PM54 °FPassing clouds.10 mph82%29.74 "HgN/A
10:50 PM54 °FClear.9 mph82%29.74 "Hg10 mi
10:20 PM54 °FClear.10 mph82%29.74 "Hg10 mi
Weather by CustomWeather, © 2016

See weather overviewHow to use our weather pages